Location: Crescent
(42.8242°N, 73.7329°W)
Time: 18:23:27
(UTC+00:00)

SR - Pass Details

Date: 19 February 2026
Orbit: 572 x 848 km, 66.7° (Epoch: 8 March)

Event Time Altitude Azimuth Distance (km) Brightness Sun altitude
Rises 08:32:20 0° 193° (SSW) 2,763 - -35.9°
Reaches altitude 10° 08:34:34 10° 186° (S) 1,874 - -35.5°
Maximum altitude 08:38:33 44° 115° (ESE) 816 - -34.8°
Exits shadow 08:41:18 19° 51° (NE) 1,442 ? -34.3°
Drops below altitude 10° 08:42:42 10° 43° (NE) 1,959 ? -34.1°
Sets 08:45:05 0° 37° (NE) 2,903 ? -33.7°
